Regional Weather Roundup
Issued by NWS

Home | Current Version | Previous Version | Graphics & Text | Print | Product List | Glossary On
Versions: 1 2 3 4 5 6 7 8 9 10 11 12 13 14 15 16 17 18 19 20 21 22 23 24 25 26 27 28 29 30 31 32 33 34 35 36 37 38 39 40 41 42 43 44 45 46 47 48 49 50
000
ASUS43 KTOP 182008
RWRKS

WEATHER ROUNDUP FOR KANSAS
NATIONAL WEATHER SERVICE GOODLAND KS
200 PM CST WED JAN 18 2017

NOTE:  "FAIR" INDICATES FEW OR NO CLOUDS BELOW 12,000 FEET WITH NO
SIGNIFICANT WEATHER AND/OR OBSTRUCTIONS TO VISIBILITY.

KSZ001>006-013>018-027>032-041>047-182100-
NORTHWEST KANSAS

CITY           SKY/WX    TMP DP  RH WIND       PRES   REMARKS
GOODLAND       SUNNY     46  34  62 S6        29.84F
HAYS           PTSUNNY   54  42  64 S21       29.90F
HILL CITY      CLOUDY    50  39  66 S13       29.90F
$$

KSZ061>065-074>080-084>089-182100-
SOUTHWEST KANSAS

CITY           SKY/WX    TMP DP  RH WIND       PRES   REMARKS
DODGE CITY     SUNNY     55  41  59 S21G28    29.91F
ELKHART          N/A     49  35  58 S10         N/A
GARDEN CITY    PTSUNNY   51  42  71 S22G29    29.90F
GREAT BEND     MOSUNNY   55  40  56 S20       29.93F
LIBERAL        MOSUNNY   54  43  66 S17       29.92F
PRATT          SUNNY     51  36  57 S15       29.97F
$$

KSZ066>073-081>083-090>101-182100-
SOUTHEAST KANSAS

CITY           SKY/WX    TMP DP  RH WIND       PRES   REMARKS
CHANUTE        CLOUDY    47  39  74 S7        30.06F
COFFEYVILLE    CLOUDY    49  40  71 CALM      30.06F
HUTCHINSON     MOSUNNY   55  36  48 S16       29.99F
MEDICINE LODGE   N/A     52  37  56 S10       29.98F
NEWTON         MOSUNNY   52  38  58 S16       30.00F
PARSONS        CLOUDY    48  38  68 S3        30.06F
WICHITA INTL   PTSUNNY   53  39  59 S15       30.01F
WICHITA JABRA  CLOUDY    52  40  63 S12       30.00F
WICHITA MCCONL PTSUNNY   53  38  57 S13       30.00F
WINFIELD       PTSUNNY   54  37  52 S12       30.04F
$$

KSZ007>012-019>026-033>040-048>060-102>105-182100-
NORTHEAST KANSAS

CITY           SKY/WX    TMP DP  RH WIND       PRES   REMARKS
CONCORDIA      SUNNY     52  38  58 S12G22    29.93F
EMPORIA        PTSUNNY   54  33  45 S15       30.01F
LAWRENCE       SUNNY     46  37  71 SE7       30.04F
MANHATTAN      SUNNY     57  34  41 S16G22    29.98F
MARYSVILLE     SUNNY     54  34  47 S15G21    29.97F
OLATHE IND     SUNNY     44  39  82 S5        30.05F
OLATHE EXE     SUNNY     44  40  85 S3        30.05F
SALINA         SUNNY     52  36  54 S17       30.00F
TOPEKA BILLARD SUNNY     53  36  52 S9        30.02F
TOPEKA FORBES  SUNNY     53  37  54 S9        30.02F
$$




USA.gov is the U.S. government's official web portal to all federal, state and local government web resources and services.